Location: Kuffner-Sternwarte
(48.2130°N, 16.2960°E)
Time: 05:20:20
(UTC+02:00)

Envisat - Pass Details

Date: 22 September 2024
Orbit: 762 x 764 km, 98.3° (Epoch: 04 October)

Event Time Altitude Azimuth Distance (km) Brightness Sun altitude
Rises 05:00:47 0° 7° (N) 3,238 6.6 -17.3°
Reaches altitude 10° 05:03:13 10° 0° (N) 2,307 5.7 -16.9°
Maximum altitude 05:07:52 38° 294° (WNW) 1,158 3.6 -16.2°
Enters shadow 05:10:02 26° 247° (WSW) 1,483 3.9 -15.8°
